Prague, Czech Republic

7:02 AM CET on January 22, 2017 (GMT +0100)
Ruzyne

Weather History for LKPR - April, 2013

Change the Weather History Date:

Saturday, April 20, 2013

  Actual Average Record
Temperature  
Mean Temperature 46 °F -  
Max Temperature 49 °F 62 °F 68 °F (2011)
Min Temperature 43 °F 42 °F 28 °F (1997)
Degree Days  
Heating Degree Days 19    
Moisture  
Dew Point 41 °F    
Average Humidity 81    
Maximum Humidity 100    
Minimum Humidity 69    
Precipitation  
Precipitation 0.03 in 0.08 in - ()
Sea Level Pressure  
Sea Level Pressure 30.27 in    
Wind  
Wind Speed 8 mph ()    
Max Wind Speed 13 mph    
Max Gust Speed -    
Visibility 6.6 miles    
Events Rain    
Averages and records for this station are not official NWS values.
T = Trace of Precipitation, MM = Missing Value Source: Averaged Metar Reports

Daily Weather History Graph

Daily Weather History Graph

Search for Another Location

Airport or City:

Trip Planner

Search our weather history database for the weather conditions in past years. The results will help you decide how hot, cold, wet, or windy it might be!

Date:

Astronomy

Apr. 20, 2013 Rise Set
Actual Time 5:59 AM CEST 8:04 PM CEST
Civil Twilight 5:24 AM CEST 8:39 PM CEST
Nautical Twilight 4:41 AM CEST 9:23 PM CEST
Astronomical Twilight 3:52 AM CEST 10:13 PM CEST
Moon 1:59 PM CEST (4/20) 3:13 AM CEST (4/20)
Length of Visible Light 15h 15m
Length of Day
14h 05m
Waxing Gibbous, 68% of the Moon is Illuminated
Apr 20
Waxing Gibbous
Apr 25
Full
May 2
Last Quarter
May 10
New
May 18
First Quarter

Hourly Weather History & Observations

Time (CEST) Temp. Windchill Dew Point Humidity Pressure Visibility Wind Dir Wind Speed Gust Speed Precip Events Conditions
12:00 AM 46.4 °F 42.9 °F 42.8 °F 87% 30.24 in 6.2 mi NNW 6.9 mph - N/A Rain Light Rain
12:30 AM 46.4 °F 42.9 °F 44.6 °F 93% 30.24 in 5.0 mi NNW 6.9 mph - N/A Rain Rain
1:00 AM 46.4 °F 42.4 °F 44.6 °F 93% 30.24 in 4.3 mi North 8.1 mph - N/A Rain Rain
1:30 AM 44.6 °F 39.7 °F 44.6 °F 100% 30.24 in 4.3 mi North 9.2 mph - N/A Rain Rain
2:00 AM 45 °F - 42 °F 83% 30.30 in 9 mi North 11.2 mph - - Rain Light Rain
2:00 AM 44.6 °F 40.2 °F 41.0 °F 87% 30.24 in 6.2 mi North 8.1 mph - N/A Rain Light Rain
2:30 AM 44.6 °F 39.2 °F 39.2 °F 81% 30.27 in 6.2 mi North 10.4 mph - N/A Rain Light Rain
3:00 AM 44.6 °F 39.2 °F 39.2 °F 81% 30.27 in 6.2 mi North 10.4 mph - N/A Rain Light Rain
3:30 AM 42.8 °F 39.3 °F 41.0 °F 93% 30.27 in 6.2 mi North 5.8 mph - N/A Rain Light Rain
4:00 AM 42.8 °F 39.3 °F 39.2 °F 87% 30.27 in 6.2 mi NNE 5.8 mph - N/A Rain Light Rain
4:30 AM 42.8 °F 38.6 °F 39.2 °F 87% 30.27 in 6.2 mi ENE 6.9 mph - N/A Rain Light Rain
5:00 AM 44.6 °F 40.7 °F 39.2 °F 81% 30.27 in 6.2 mi NNE 6.9 mph - N/A Rain Light Rain
5:30 AM 44.6 °F 40.2 °F 39.2 °F 81% 30.27 in 6.2 mi NNE 8.1 mph - N/A Rain Light Rain
6:00 AM 42.8 °F 38.6 °F 39.2 °F 87% 30.27 in 6.2 mi NNW 6.9 mph - N/A   Overcast
6:30 AM 42.8 °F 39.3 °F 41.0 °F 93% 30.27 in 6.2 mi NW 5.8 mph - N/A   Overcast
7:00 AM 44.6 °F 40.7 °F 41.0 °F 87% 30.27 in 6.2 mi NW 6.9 mph - N/A Rain Light Rain
7:16 AM 44.6 °F 41.4 °F 41.0 °F 87% 30.27 in 6.2 mi NW 5.8 mph - N/A   Partly Cloudy
7:30 AM 44.6 °F 40.7 °F 41.0 °F 87% 30.27 in 6.2 mi NW 6.9 mph - N/A   Partly Cloudy
8:00 AM 44 °F - 41 °F 85% 30.32 in 16 mi North 6.7 mph - - Rain Light Rain
8:00 AM 44.6 °F 41.4 °F 41.0 °F 87% 30.27 in 6.2 mi North 5.8 mph - N/A   Partly Cloudy
8:20 AM 44.6 °F 41.4 °F 41.0 °F 87% 30.30 in 6.2 mi North 5.8 mph - N/A Rain Light Rain
8:30 AM 44.6 °F 40.7 °F 41.0 °F 87% 30.30 in 6.2 mi North 6.9 mph - N/A Rain Light Rain
9:00 AM 46.4 °F 42.9 °F 41.0 °F 81% 30.30 in 6.2 mi North 6.9 mph - N/A   Scattered Clouds
9:30 AM 46.4 °F 41.1 °F 41.0 °F 81% 30.30 in 6.2 mi North 11.5 mph - N/A   Mostly Cloudy
10:00 AM 46.4 °F 41.1 °F 41.0 °F 81% 30.30 in 6.2 mi NNE 11.5 mph - N/A   Scattered Clouds
10:30 AM 46.4 °F 41.1 °F 41.0 °F 81% 30.30 in 6.2 mi North 11.5 mph - N/A   Scattered Clouds
11:00 AM 48.2 °F - 41.0 °F 76% 30.30 in 6.2 mi North 11.5 mph - N/A   Partly Cloudy
11:30 AM 48.2 °F - 41.0 °F 76% 30.30 in 6.2 mi NNE 12.7 mph - N/A   Mostly Cloudy
12:00 PM 50.0 °F - 41.0 °F 71% 30.30 in 6.2 mi NNE 11.5 mph - N/A Rain Light Rain
12:30 PM 48.2 °F - 41.0 °F 76% 30.30 in 6.2 mi NE 12.7 mph - N/A   Scattered Clouds
1:00 PM 48.2 °F - 41.0 °F 76% 30.30 in 6.2 mi NE 12.7 mph - N/A Rain Light Rain
1:30 PM 48.2 °F - 41.0 °F 76% 30.30 in 6.2 mi NE 12.7 mph - N/A Rain Light Rain
2:00 PM 48 °F - 41 °F 70% 30.32 in 9 mi NE 8.9 mph - - Rain Light Rain
2:00 PM 48.2 °F - 41.0 °F 76% 30.30 in 6.2 mi ENE 11.5 mph - N/A Rain Light Rain
2:30 PM 48.2 °F - 42.8 °F 82% 30.30 in 6.2 mi NE 10.4 mph - N/A Rain Light Rain
3:00 PM 48.2 °F - 44.6 °F 87% 30.30 in 5.0 mi NE 10.4 mph - N/A Rain Light Rain
3:30 PM 48.2 °F - 42.8 °F 82% 30.27 in 6.2 mi NE 11.5 mph - N/A   Mostly Cloudy
4:00 PM 48.2 °F - 44.6 °F 87% 30.27 in 6.2 mi NE 12.7 mph - N/A   Mostly Cloudy
4:30 PM 48.2 °F - 42.8 °F 82% 30.27 in 6.2 mi NE 12.7 mph - N/A   Mostly Cloudy
5:00 PM 50.0 °F - 42.8 °F 76% 30.27 in 6.2 mi NE 11.5 mph - N/A   Scattered Clouds
5:30 PM 50.0 °F - 41.0 °F 71% 30.27 in 6.2 mi NE 11.5 mph - N/A   Mostly Cloudy
6:00 PM 50.0 °F - 42.8 °F 76% 30.24 in 6.2 mi NE 9.2 mph - N/A   Mostly Cloudy
6:30 PM 50.0 °F - 42.8 °F 76% 30.24 in 6.2 mi NE 9.2 mph - N/A   Overcast
7:00 PM 50.0 °F - 41.0 °F 71% 30.24 in 6.2 mi NE 8.1 mph - N/A   Overcast
7:30 PM 50.0 °F - 41.0 °F 71% 30.24 in 6.2 mi NE 10.4 mph - N/A   Overcast
8:00 PM 49 °F - 42 °F 69% 30.28 in 19 mi ENE 6.7 mph - -   Partly Cloudy
8:00 PM 48.2 °F - 42.8 °F 82% 30.24 in 6.2 mi NE 6.9 mph - N/A   Overcast
8:30 PM 48.2 °F - 39.2 °F 71% 30.24 in 6.2 mi ENE 6.9 mph - N/A   Overcast
9:00 PM 48.2 °F - 39.2 °F 71% 30.24 in 6.2 mi ENE 9.2 mph - N/A   Overcast
9:30 PM 46.4 °F 41.5 °F 37.4 °F 71% 30.27 in 6.2 mi ENE 10.4 mph - N/A   Scattered Clouds
10:00 PM 44.6 °F 39.2 °F 37.4 °F 76% 30.27 in - ENE 10.4 mph - N/A   Clear
10:30 PM 44.6 °F 38.4 °F 37.4 °F 76% 30.27 in - East 12.7 mph - N/A   Clear
11:00 PM 44.6 °F 38.4 °F 37.4 °F 76% 30.27 in 6.2 mi East 12.7 mph - N/A   Partly Cloudy
11:30 PM 46.4 °F 41.5 °F 37.4 °F 71% 30.27 in 6.2 mi ENE 10.4 mph - N/A   Mostly Cloudy